Location: Gälforsberget
(66.6500°N, 22.4167°E)
Time: 06:39:14
(UTC+00:00)

NOSS 3-1 (C) - Pass Details

Date: 11 April 2026
Orbit: 618 x 1583 km, 63.4° (Epoch: 10 January)

Event Time Altitude Azimuth Distance (km) Brightness Sun altitude
Rises 20:27:02 0° 287° (WNW) 3,424 7.2 -11.5°
Reaches altitude 10° 20:29:20 10° 282° (WNW) 2,605 6.4 -11.6°
Maximum altitude 20:35:13 50° 209° (SSW) 1,353 4.1 -11.9°
Enters shadow 20:41:26 15° 141° (SE) 2,867 5.3 -12.2°
